www.pogodaiklimat.ru

Погода и климат >> Архив погоды >> Ирак >> Diwaniya


ПОГОДА в Diwaniya

  • Прогноз погоды в Diwaniya
  • Монитор погоды в Diwaniya
  • Климат города

АРХИВ ПОГОДЫ в Diwaniya

Время (UTC), дата Ветер
(напр.,м/с)
 
Видим.   Явления Облачность Т
(С)
Тd
(С)
f
(%)
Тe
(С)
Тes
(С)
Комфортность P
(гПа)
Po
(гПа)
Тmin
(С)
Tmax
(С)
R
(мм)
R24
(мм)
S
(см)
00 12.12 З 3 10 км ясно +7.8 +0.7 61 +5 +5 1024.0 1024.0
03 12.12 СЗ 2 10 км ясно +6.0 +0.3 67 +4 +4 1025.7 1026.0
06 12.12 СЗ 2 10 км ясно +9.2 -0.2 52 +8 +11 1026.1 1026.0 +6.0
09 12.12 СЗ 4 10 км ясно +17.0 +3.9 42 1024.4 1024.5
12 12.12 СЗ 2 10 км 3/0
[Ci sp]
+19.0 +4.3 38 +20 +22 1022.7 1023.0
15 12.12 СЗ 3 10 км 4/0
[Ci ing]
+15.8 +5.3 50 +15 +15 1023.0 1023.0
18 12.12 СЗ 4 10 км ясно +13.0 +2.7 50 +12 +12 1023.0 1023.0 +19.8
21 12.12 СЗ 4 10 км ясно +11.0 +2.9 57 +9 +9 1022.5 1023.0
00 13.12 СЗ 3 10 км ясно +9.2 +1.4 58 +7 +7 1022.3 1022.0
03 13.12 СЗ 3 10 км ясно +8.6 +1.2 60 +6 +6 1021.3 1021.0
06 13.12 СЗ 2 10 км 4/0
[Ci fib]
+10.8 +1.7 53 +10 +12 1021.6 1022.0 +7.0
09 13.12 СЗ 2 10 км 4/0
[Ci fib]
+18.6 +3.4 36 +19 +26 1019.4 1019.0
12 13.12 СЗ 2 10 км 6/0
[Cs]
+21.6 +5.3 35 +22 +24 комфорт 1018.3 1018.0
15 13.12 СЗ 1 10 км 4/0
[Ac trans]
+16.8 +7.1 53 +18 +18 1017.7 1018.0
18 13.12 штиль 0 10 км ясно +11.4 +6.3 71 +11 +11 1018.0 1018.0 +22.7
21 13.12 штиль 0 10 км ясно +9.2 +5.2 76 +9 +9 1018.0 1018.0
00 14.12 штиль 0 10 км ясно +8.8 +3.4 69 +8 +8 1016.5 1017.0
03 14.12 штиль 0 10 км ясно +6.3 +1.2 70 +6 +6 1016.6 1017.0
06 14.12 СЗ 1 10 км ясно +9.3 +1.2 57 +9 +12 1018.0 1018.0 +5.5
12 14.12 СЗ 2 10 км ясно +21.3 +0.8 26 +21 +24 комфорт 1014.7 1015.0
18 14.12 СЗ 2 10 км ясно +13.6 +6.5 62 +13 +13 1015.9 1016.0 +22.5
03 15.12 штиль 0 10 км ясно +6.2 +3.6 83 +5 +5 1017.7 1018.0
06 15.12 СЗ 2 10 км ясно +8.6 +3.7 71 +7 +10 1018.8 1019.0 +5.0
09 15.12 СЗ 2 10 км 8/8 1050 м
[Cu Sc]
+18.0 +2.1 34 +19 +20 1017.3 1017.0
12 15.12 СЗ 2 10 км 3/3 1140 м
[Cu hum]
+20.0 +12.9 64 +22 +24 комфорт 1016.9 1017.0
15 15.12 СЗ 2 10 км ясно +17.0 +13.0 77 +17 +17 1017.5 1018.0
18 15.12 З 2 10 км ясно +13.6 +10.9 84 +13 +13 1019.4 1019.0 +21.0
21 15.12 штиль 0 10 км ясно +11.8 +9.2 84 +11 +11 1020.1 1020.0
00 16.12 штиль 0 10 км ясно +10.2 +8.3 88 +9 +9 1020.1 1020.0
03 16.12 штиль 0 8000 м мгла ясно +8.4 +5.0 79 +8 +8 1022.2 1022.0
06 16.12 штиль 0 10 км ясно +9.4 +4.6 72 +9 +12 1023.3 1023.0 +7.4
09 16.12 СЗ 3 10 км ясно +19.0 +9.3 53 +20 +26 1022.7 1023.0
12 16.12 С 3 10 км ясно +21.4 +8.2 43 +23 +25 комфорт 1021.6 1022.0
15 16.12 штиль 0 10 км 1/0
[Ac lent]
+17.0 +11.5 70 +17 +17 1022.1 1022.0
18 16.12 штиль 0 10 км ясно +13.4 +8.6 73 +13 +13 1023.4 1023.0 +22.5
21 16.12 штиль 0 10 км ясно +10.6 +4.8 67 +10 +10 1023.7 1024.0
00 17.12 штиль 0 10 км ясно +8.8 +5.2 78 +8 +8 1024.0 1024.0
03 17.12 СЗ 1 10 км ясно +8.0 +3.8 75 +7 +7 1024.7 1025.0
06 17.12 штиль 0 10 км ясно +10.0 +3.0 62 +10 +13 1026.5 1027.0 +7.0
09 17.12 З 3 10 км ясно +19.0 +5.8 42 +20 +26 1025.5 1026.0
12 17.12 З 2 10 км ясно +20.6 +4.2 34 +22 +24 комфорт 1023.6 1024.0
15 17.12 СЗ 1 10 км ясно +16.2 +8.3 59 +17 +17 1023.6 1024.0
21 17.12 СЗ 1 10 км ясно +9.2 +5.4 77 +9 +9 1025.2 1025.0
00 18.12 З 1 10 км ясно +7.7 +2.1 68 +7 +7 1025.2 1025.0
03 18.12 З 2 10 км ясно +7.3 +1.6 67 +5 +5 1025.6 1026.0
06 18.12 штиль 0 10 км 3/0
[Ci fib]
+10.0 +3.0 62 +10 +13 1027.2 1027.0 +5.0
09 18.12 штиль 0 10 км ясно +18.8 +4.6 39 +19 +29 1026.7 1027.0
15 18.12 штиль 0 10 км 6/0
[Ac trans]
+15.8 +10.9 73 +16 +16 1025.3 1025.0
18 18.12 штиль 0 10 км 6/0
[Ac trans]
+15.8 +6.8 55 +16 +16 1025.8 1026.0 +22.0

 

Местоположение метеостанции Diwaniya (Ирак): широта 31.98 долгота 44.98 высота над уровнем моря 20 м.

В архиве по умолчанию представлена погода в Diwaniya за последнюю неделю. Архивные данные за месяц целиком и за предыдущие месяцы, начиная с января 2011 года, Вы можете получить, выбрав интересующий диапазон дат из раскрывающегося списка и нажав кнопку "Ввод!".

Внимание! Время в таблицах - всемирное. Для получения местного времени необходимо прибавить поправку, которая в Diwaniya равна 3 ч.

Смотрите также архив погоды в соседних городах и на ближайших метеорологических станциях:

Погода в Najaf (Ирак) (62 км)
Погода в Hella (Ирак) (72 км)
Погода в Samawah (Ирак) (80 км)
Погода в Ubaydah Bin Al Jarrah (Ирак) (92 км)
Погода в Kut-Al-Hai (Ирак) (103 км)
Погода в Azizyah (Ирак) (105 км)
Погода в Rifai (Ирак) (110 км)
Погода в Karbalaa (Ирак) (115 км)
Погода в Badrah (Ирак) (154 км)
Погода в Nasiriya (Ирак) (155 км)

Пояснения к столбцам:

Ветер - указаны скорость ветра в м/с - средняя за 10 мин, порывы в срок и между сроками (в фигурных скобках) и направление, откуда дует ветер: С - северный, СВ - северо-восточный, В - восточный, ЮВ - юго-восточный, Ю - южный, ЮЗ - юго-западный, З - западный, СЗ - северо-западный.
Видимость - горизонтальная дальность видимости в метрах или километрах. При видимости от 1 до 10 км при отсутствии осадков обычно наблюдается дымка, при ухудшении видимости до 1 км и менее - туман. В сухую погоду видимость может ухудшаться дымом, пылью или мглою.
Явления - указаны атмосферные явления, наблюдавшиеся в срок или в последний час перед сроком; фигурными скобками обозначены явления, наблюдавшиеся между сроками (за 1-3 часа до срока); квадратными скобками обозначены град или гололедные отложения с указанием их диаметра в мм.
Облачность - указаны через наклонную черту общая и нижняя облачность в баллах и высота нижней границы облаков в метрах; квадратными скобками обозначены формы облаков: Ci - перистые, Cs - перисто-слоистые, Cc - перисто-кучевые, Ac - высококучевые, As - высокослоистые, Sc - слоисто-кучевые, Ns - слоисто-дождевые, Cu - кучевые, Cb - кучево-дождевые. Подробнее классификацию облаков см. в Атласе облаков (PDF).
T - Температура воздуха - температура, измеренная на высоте 2 м над землей.
Td - Температура точки росы - температура, при понижении до которой содержащийся в воздухе водяной пар достигнет насыщения.
f - Относительная влажность воздуха - влажноcть воздуха, измеренная на высоте 2 м над землей.
Te - Эффективная температура - температура, которую ощущает одетый по сезону человек в тени. Характеристика душности погоды. При расчете учитывается влияние влажности воздуха и скорости ветра на теплоощущения человека.
Tes - Эффективная температура на солнце - температура, которую ощущает человек, с поправкой на солнечный нагрев. Характеристика знойности погоды. Зависит от высоты солнца над горизонтом, облачности и скорости ветра. Ночью, в пасмурную погоду, а также при ветре 12 м/с и более поправка равна нулю.
P - Атмосферное давление - приведенное к уровню моря атмосферное давление.
Po - Атмосферное давление - измеренное на уровне метеостанции атмосферное давление.
Tmin - Минимальная температура - минимум температуры воздуха на высоте 2 м над землей.
Tmax - Максимальная температура - максимум температуры воздуха на высоте 2 м над землей.
R - Количество осадков - Количество выпавших осадков за период времени, мм. При наведении курсора мыши на число - период времени, за который выпало указанное количество осадков.
R24 - Количество осадков - Количество выпавших осадков за 24 часа, мм.
S - Снежный покров - Высота снежного покрова, см. При наведении курсора мыши на число - состояние снежного покрова и степень покрытия местности в баллах.